Wind_Speed
40 48 45 38 31 19 18 23 25 26 27 25 27 25 25 25 27 27 28 27 26 30
33 35 45 46 41 28 16 16 27 27 27 28 29 30 29 30 31 28 28 32 30 28
31 30 31 36 43 38 18 17 21 29 30 28 27 28 27 31 31 31 31 32 32 31
37 32 31 31 31 40 26 19 19 28 30 32 31 31 30 33 33 34 34 34 35 33
37 37 35 35 30 35 34 19 20 26 33 35 35 35 35 35 35 37 37 36 36 37
40 36 37 34 35 27 33 31 19 23 28 33 31 33 34 33 38 39 38 38 39 40
40 38 37 35 37 28 29 30 22 25 27 28 25 29 31 33 32 35 37 38 39 40
39 38 37 36 36 32 23 28 28 27 29 27 27 28 30 30 33 38 36 41 41 41
39 37 36 35 35 35 22 25 31 25 24 25 25 26 27 28 32 34 38 39 38 38
38 36 35 35 35 32 24 25 25 23 22 25 24 24 25 28 31 34 37 37 36 37
36 35 34 35 34 32 27 27 25 20 21 23 25 24 24 25 31 33 31 30 32 36
35 36 35 34 34 32 29 27 22 21 23 25 23 21 23 25 24 24 27 31 34 37
35 34 34 34 35 31 26 21 18 20 21 22 22 20 22 21 23 26 28 30 34 34
34 32 32 34 33 27 21 17 18 17 15 16 19 21 22 21 22 22 25 25 24 24
Wind_Direction
307 306 305 314 299 265 258 259 252 249 244 244 242 244 252 255 249 247 250 251 255 256
313 302 298 298 302 287 245 256 251 249 245 241 243 245 246 249 254 258 257 255 253 257
318 302 295 288 298 290 257 238 264 247 243 241 243 246 248 249 253 253 256 258 261 254
317 315 298 291 290 290 282 234 254 250 245 243 241 244 246 248 251 254 255 258 258 256
309 310 309 299 293 293 286 261 248 259 247 250 243 245 246 249 250 252 253 251 253 257
309 310 306 303 295 287 280 280 244 253 251 256 250 246 246 249 250 251 254 255 254 256
308 308 307 303 298 292 277 279 258 246 244 252 251 247 245 244 252 252 252 253 252 255
307 306 304 302 302 295 283 277 269 251 239 253 245 244 247 248 247 249 255 258 251 257
308 306 303 301 301 292 282 271 269 245 247 255 251 250 249 250 253 256 253 254 257 255
307 304 301 300 300 295 285 279 271 249 256 260 256 255 251 246 251 252 253 249 250 252
307 302 300 299 300 293 290 283 267 253 261 266 259 251 251 252 243 239 242 247 250 252
307 301 298 298 298 293 293 281 263 261 258 257 251 249 245 231 234 243 251 256 260 261
306 299 297 297 295 294 290 280 264 262 266 254 249 242 227 241 243 253 262 267 270 266
302 296 294 296 295 297 291 275 263 271 262 255 236 225 239 241 251 260 267 270 270 263
Height
1484 1481 1483 1477 1473 1468 1469 1470 1471 1471 1470 1472 1473 1475 1477 1478 1479 1481 1483 1484 1485 1486
1479 1476 1473 1473 1469 1462 1460 1461 1463 1463 1463 1464 1466 1468 1470 1472 1473 1475 1476 1477 1479 1480
1474 1471 1467 1464 1463 1457 1450 1450 1453 1455 1455 1455 1457 1459 1461 1463 1466 1468 1469 1471 1472 1473
1465 1462 1460 1455 1451 1445 1435 1437 1441 1446 1445 1447 1448 1451 1453 1455 1457 1460 1462 1463 1465 1465
1457 1454 1449 1442 1432 1432 1430 1429 1431 1434 1436 1438 1438 1441 1444 1446 1448 1449 1452 1455 1457 1457
1448 1444 1438 1433 1433 1427 1423 1422 1421 1424 1426 1428 1428 1431 1434 1436 1438 1439 1442 1445 1447 1449
1441 1436 1431 1426 1425 1419 1419 1413 1410 1416 1417 1420 1420 1423 1424 1426 1428 1429 1432 1435 1438 1439
1433 1428 1423 1417 1413 1407 1402 1405 1403 1407 1410 1412 1413 1412 1414 1416 1418 1420 1422 1424 1427 1428
1426 1420 1416 1410 1405 1405 1395 1398 1399 1398 1400 1402 1402 1403 1406 1406 1408 1411 1413 1414 1416 1418
1418 1412 1407 1403 1399 1391 1390 1391 1388 1390 1392 1394 1392 1394 1395 1398 1399 1402 1403 1404 1406 1407
1409 1403 1400 1395 1390 1387 1385 1384 1383 1383 1384 1382 1383 1384 1386 1387 1390 1392 1394 1396 1396 1396
1400 1394 1390 1385 1383 1381 1377 1377 1375 1373 1375 1375 1374 1375 1378 1381 1383 1385 1385 1386 1386 1385
1391 1386 1380 1377 1376 1372 1369 1365 1364 1365 1365 1365 1365 1368 1372 1375 1377 1377 1378 1376 1374 1373
1382 1378 1373 1368 1365 1360 1357 1357 1358 1356 1356 1356 1360 1364 1367 1369 1370 1370 1369 1367 1364 1362